カタログに戻る

SL-8 R/B

運用中LEO
NORAD 13992·ROCKET BODY·🇷🇺 Russia

打ち上げ Apr 12, 1983 から Plesetsk Cosmodrome

Loading…

次のパス (今後24時間)

TLE

最新Source: Space-Track

元期: Sep 14, 2026, 16:17 UTC

1 13992U 83031B   26257.67878018  .00000099  00000-0  41728-4 0  9990
2 13992  74.0509 289.5903 0004415 165.5985 194.5296 14.37626743273371

AllMySatでSL-8 R/Bをリアルタイム追跡

Download on the App Store